CW4421 Weather Reports


time (UTC)temp
C
wind
direction
speed
KPH
gust
KPH
rain 1hr
cm
rain 24hr
cm
rain mn
cm
humidity
%
barometer
mb
20260510231555 21 81 8.0 19.3 0.00 0.03 0.00 28 1019.4
20260510224554 21 52 9.7 17.7 0.00 0.03 0.00 27 1019.4
20260510223054 21 64 11.3 20.9 0.00 0.03 0.00 27 1019.5
20260510221554 21 78 9.7 17.7 0.00 0.03 0.00 26 1019.5
20260510220054 20 54 9.7 17.7 0.00 0.03 0.00 27 1019.6
20260510214552 20 51 4.8 9.7 0.00 0.03 0.00 27 1019.6
20260510213052 21 61 9.7 19.3 0.00 0.03 0.00 26 1019.7
20260510211551 21 80 9.7 20.9 0.00 0.03 0.00 27 1019.7
20260510210053 21 57 11.3 22.5 0.00 0.03 0.00 27 1019.6
20260510204554 21 47 9.7 17.7 0.00 0.03 0.00 28 1019.4
20260510203050 21 5 6.4 19.3 0.00 0.03 0.00 28 1019.4
20260510201549 21 53 9.7 24.1 0.00 0.03 0.00 26 1019.6
20260510200049 21 30 6.4 19.3 0.00 0.03 0.00 26 1019.6
20260510194551 21 73 14.5 22.5 0.00 0.03 0.00 25 1019.6
20260510193051 21 75 9.7 24.1 0.00 0.03 0.00 28 1019.7
20260510191550 21 28 6.4 19.3 0.00 0.03 0.00 28 1019.7
20260510190046 21 55 11.3 19.3 0.00 0.03 0.00 27 1019.8
20260510184544 21 5 4.8 20.9 0.00 0.03 0.00 28 1019.9
20260510183045 21 79 11.3 20.9 0.00 0.03 0.00 31 1019.9
20260510181545 20 53 12.9 33.8 0.00 0.03 0.00 31 1019.9
20260510180037 20 44 9.7 24.1 0.00 0.03 0.00 35 1019.9
20260510174535 18 59 11.3 25.7 0.00 0.03 0.00 38 1020.1
20260510173031 17 58 12.9 20.9 0.00 0.03 0.00 37 1020.2
20260510171528 17 51 9.7 17.7 0.00 0.03 0.00 39 1020.4
20260510170025 16 67 9.7 19.3 0.00 0.03 0.00 40 1020.6
20260510164537 16 61 14.5 22.5 0.00 0.03 0.00 39 1020.2
20260510163020 16 66 12.9 20.9 0.00 0.03 0.00 42 1020.0
20260510161518 16 65 16.1 29.0 0.00 0.03 0.00 42 1019.9
20260510160017 15 90 14.5 22.5 0.00 0.03 0.00 45 1019.8
20260510154537 14 76 11.3 24.1 0.00 0.03 0.00 51 1019.6
20260510153020 14 78 12.9 22.5 0.00 0.03 0.00 54 1019.4
20260510151516 13 78 12.9 30.6 0.00 0.03 0.00 54 1019.3
20260510150014 13 90 12.9 20.9 0.00 0.03 0.00 59 1018.9
20260510144521 12 84 11.3 20.9 0.00 0.03 0.00 65 1019.3
20260510143011 12 78 11.3 16.1 0.00 0.03 0.00 68 1019.9
20260510141510 11 62 9.7 14.5 0.00 0.03 0.00 74 1019.9
20260510140011 11 64 4.8 11.3 0.00 0.03 0.00 75 1019.4
20260510134508 11 48 6.4 12.9 0.00 0.03 0.00 75 1018.7
20260510133005 11 59 8.0 11.3 0.00 0.03 0.00 77 1018.2
20260510131504 11 66 3.2 11.3 0.00 0.03 0.00 77 1018.1
20260510130003 11 74 4.8 8.0 0.00 0.03 0.00 78 1018.2
20260510124606 11 56 1.6 8.0 0.00 0.03 0.00 76 1017.6
20260510123058 12 76 9.7 16.1 0.00 0.03 0.00 71 1017.1
20260510121554 12 72 8.0 11.3 0.00 0.03 0.00 72 1017.0
20260510120053 12 71 6.4 11.3 0.00 0.03 0.00 71 1016.2
20260510114550 12 61 4.8 17.7 0.00 0.03 0.00 69 1015.8
20260510113053 12 37 1.6 11.3 0.00 0.03 0.00 70 1015.5
20260510111543 14 13 4.8 20.9 0.00 0.03 0.00 61 1014.4
20260510110042 14 82 12.9 22.5 0.00 0.03 0.00 57 1014.2
20260510104541 14 65 16.1 24.1 0.00 0.03 0.00 60 1013.9
20260510103038 13 68 12.9 25.7 0.00 0.03 0.00 62 1013.9
20260510101536 13 56 14.5 25.7 0.00 0.03 0.00 63 1013.8
20260510100034 13 65 9.7 17.7 0.00 0.03 0.00 63 1013.8
20260510094535 13 71 8.0 17.7 0.00 0.03 0.00 65 1013.8
20260510093030 13 34 6.4 12.9 0.00 0.03 0.00 65 1013.7
20260510091531 14 46 6.4 12.9 0.00 0.03 0.00 65 1013.5
20260510090028 14 25 4.8 11.3 0.00 0.03 0.00 64 1013.8
20260510084527 15 5 3.2 17.7 0.00 0.03 0.00 62 1013.4
20260510083023 15 72 9.7 22.5 0.00 0.03 0.00 61 1013.1
20260510081523 15 84 12.9 25.7 0.00 0.03 0.00 62 1012.8
20260510080022 15 59 14.5 20.9 0.00 0.03 0.00 62 1012.5
20260510074522 15 61 16.1 29.0 0.00 0.03 0.00 62 1012.8
20260510073027 15 61 11.3 20.9 0.00 0.03 0.00 62 1012.6
20260510071518 15 82 14.5 22.5 0.00 0.03 0.00 63 1012.3
20260510070016 15 44 11.3 19.3 0.00 0.03 0.00 65 1012.2
20260510064535 14 55 3.2 11.3 0.00 0.03 0.00 68 1011.8
20260510063013 14 51 3.2 12.9 0.00 0.03 0.00 69 1011.7
20260510061511 14 51 4.8 11.3 0.00 0.03 0.00 69 1011.5
20260510060011 15 51 8.0 16.1 0.00 0.03 0.00 69 1011.2
20260510054507 15 58 6.4 11.3 0.00 0.03 0.00 70 1011.1
20260510053012 15 63 8.0 12.9 0.00 0.03 0.00 70 1010.6
20260510051502 15 45 8.0 12.9 0.00 0.03 0.00 68 1010.5
20260510044607 16 50 11.3 16.1 0.00 0.03 0.03 65 1010.2
20260510043057 17 66 8.0 12.9 0.00 0.03 0.03 64 1010.0
20260510041557 17 73 8.0 17.7 0.00 0.03 0.03 62 1009.7
20260510040056 17 90 8.0 17.7 0.00 0.03 0.03 62 1009.6
20260510034615 17 79 11.3 16.1 0.00 0.03 0.03 61 1009.4
20260510033059 17 78 9.7 14.5 0.00 0.03 0.03 63 1009.0
20260510031554 17 82 11.3 16.1 0.00 0.03 0.03 63 1008.7
20260510030054 17 83 6.4 9.7 0.00 0.03 0.03 61 1008.2
20260510024555 18 91 6.4 11.3 0.00 0.03 0.03 60 1007.6
20260510023052 18 88 9.7 14.5 0.00 0.03 0.03 58 1007.3
20260510021601 19 83 8.0 12.9 0.00 0.03 0.03 55 1006.8
20260510020052 19 74 9.7 16.1 0.03 0.03 0.03 54 1006.3
20260510014558 20 78 9.7 16.1 0.03 0.03 0.03 54 1006.3
20260510013100 20 96 12.9 25.7 0.03 0.03 0.03 53 1007.2
20260510011550 21 110 11.3 20.9 0.00 0.00 0.00 52 1007.3
20260510010049 22 92 8.0 14.5 0.00 0.00 0.00 45 1007.3
20260510004550 22 70 8.0 11.3 0.00 0.00 0.00 45 1006.8
20260510003102 23 9 0.0 19.3 0.00 0.00 0.00 42 1006.1
20260510001547 24 101 14.5 25.7 0.00 0.00 0.00 36 1005.8
20260510000057 26 234 0.0 1.6 0.00 0.00 0.00 30 1004.6
20260509234546 26 195 4.8 9.7 0.00 0.00 0.00 27 1003.8
20260509233044 27 131 3.2 11.3 0.00 0.00 0.00 26 1003.9